Weather History for Boone, IA

Change the Weather History Date:

Monday, November 5, 2012

  Actual Average Record
Temperature  
Mean Temperature 44 °F -  
Max Temperature 46 °F 51 °F 74 °F (1978)
Min Temperature 42 °F 28 °F 5 °F (1991)
Degree Days  
Heating Degree Days 21    
Moisture  
Dew Point 39 °F    
Average Humidity 82    
Maximum Humidity 90    
Minimum Humidity 73    
Precipitation  
Precipitation 0.13 in - - ()
Sea Level Pressure  
Sea Level Pressure 30.11 in    
Wind  
Wind Speed 11 mph (SE)    
Max Wind Speed 16 mph    
Max Gust Speed 21 mph    
Visibility 6 miles    
Events Rain    
Averages and records for this station are not official NWS values.
T = Trace of Precipitation, MM = Missing Value Source: NWS Daily Summary

Daily Weather History Graph

Daily Weather History Graph

Search for Another Location

Airport:

Trip Planner

Search our weather history database for the weather conditions in past years. The results will help you decide how hot, cold, wet, or windy it might be!

Date:

Astronomy

Nov. 05, 2012 Rise Set
Actual Time 6:53 AM CST 5:03 PM CST
Civil Twilight 6:24 AM CST 5:33 PM CST
Nautical Twilight 5:51 AM CST 6:06 PM CST
Astronomical Twilight 5:18 AM CST 6:38 PM CST
Moon 10:42 PM CST (11/5) 12:13 PM CST (11/5)
Length of Visible Light 11h 08m
Length of Day
10h 10m
Waning Gibbous, 62% of the Moon is Illuminated
Nov 5
Waning Gibbous
Nov 6
Last Quarter
Nov 13
New
Nov 20
First Quarter
Nov 28
Full

Hourly Weather History & Observations

Time (CST) Temp. Windchill Dew Point Humidity Pressure Visibility Wind Dir Wind Speed Gust Speed Precip Events Conditions
12:15 AM 43.3 °F 36.1 °F 40.3 °F 89% 30.07 in 3.0 mi ESE 15.0 mph - 0.01 in Rain Rain
12:35 AM 43.3 °F 36.1 °F 40.3 °F 89% 30.07 in 3.0 mi ESE 15.0 mph - 0.04 in Rain Light Rain
12:55 AM 43.2 °F 35.6 °F 40.1 °F 89% 30.07 in 3.0 mi ESE 16.1 mph - 0.06 in Rain Rain
1:15 AM 43.2 °F 35.9 °F 40.1 °F 89% 30.07 in 3.0 mi ESE 15.0 mph - 0.02 in Rain Rain
1:35 AM 43.2 °F 35.6 °F 40.1 °F 89% 30.07 in 3.0 mi ESE 16.1 mph - 0.02 in   Drizzle
1:55 AM 43.2 °F 35.9 °F 40.1 °F 89% 30.07 in 3.0 mi ESE 15.0 mph - 0.03 in   Drizzle
2:15 AM 43.0 °F 36.0 °F 40.1 °F 90% 30.08 in 3.0 mi ESE 13.8 mph - 0.01 in   Drizzle
2:35 AM 43.0 °F 35.7 °F 39.7 °F 88% 30.08 in 3.0 mi ESE 15.0 mph 19.6 mph 0.01 in   Drizzle
2:55 AM 43.0 °F 35.7 °F 39.7 °F 88% 30.07 in 3.0 mi ESE 15.0 mph - 0.02 in   Drizzle
3:15 AM 43.0 °F 36.0 °F 39.7 °F 88% 30.07 in 4.0 mi ESE 13.8 mph 20.7 mph N/A   Drizzle
3:35 AM 43.0 °F 36.0 °F 39.7 °F 88% 30.07 in 3.0 mi ESE 13.8 mph - 0.01 in Rain Rain
3:55 AM 43.0 °F 36.8 °F 39.7 °F 88% 30.08 in 3.0 mi ESE 11.5 mph - 0.01 in   Drizzle
4:15 AM 42.8 °F 36.6 °F 39.6 °F 88% 30.08 in 3.0 mi ESE 11.5 mph - 0.01 in   Drizzle
4:35 AM 42.8 °F 36.2 °F 39.6 °F 88% 30.08 in 4.0 mi ESE 12.7 mph - 0.01 in   Drizzle
4:55 AM 42.8 °F 36.2 °F 39.4 °F 88% 30.09 in 4.0 mi East 12.7 mph - 0.01 in   Light Drizzle
5:35 AM 42.8 °F 36.6 °F 39.2 °F 87% 30.09 in 5.0 mi East 11.5 mph - N/A   Light Drizzle
5:55 AM 42.4 °F 36.1 °F 39.2 °F 88% 30.09 in 5.0 mi East 11.5 mph - N/A   Light Drizzle
6:15 AM 42.4 °F 35.7 °F 38.8 °F 87% 30.10 in 5.0 mi East 12.7 mph - N/A   Light Drizzle
6:35 AM 42.4 °F 36.1 °F 38.8 °F 87% 30.10 in 5.0 mi East 11.5 mph - N/A   Overcast
6:55 AM 42.4 °F 35.7 °F 38.8 °F 87% 30.10 in 4.0 mi East 12.7 mph - N/A   Overcast
7:15 AM 42.3 °F 35.9 °F 38.7 °F 87% 30.11 in 4.0 mi East 11.5 mph - N/A   Overcast
7:35 AM 42.3 °F 35.9 °F 38.5 °F 86% 30.12 in 4.0 mi East 11.5 mph - N/A   Overcast
7:55 AM 42.4 °F 37.0 °F 38.7 °F 86% 30.13 in 4.0 mi East 9.2 mph - N/A   Overcast
8:15 AM 42.4 °F 37.5 °F 38.5 °F 86% 30.14 in 4.0 mi East 8.1 mph - N/A   Overcast
8:35 AM 43.0 °F 38.8 °F 39.2 °F 86% 30.14 in 4.0 mi East 6.9 mph - N/A   Overcast
8:55 AM 43.7 °F 39.1 °F 39.6 °F 85% 30.14 in 4.0 mi East 8.1 mph - N/A   Overcast
9:15 AM 43.9 °F 38.3 °F 39.4 °F 84% 30.15 in 4.0 mi East 10.4 mph - N/A   Overcast
9:35 AM 44.1 °F 38.1 °F 39.6 °F 84% 30.14 in 5.0 mi East 11.5 mph - N/A   Overcast
9:55 AM 44.6 °F 38.4 °F 39.9 °F 84% 30.15 in 5.0 mi East 12.7 mph - N/A   Haze
10:15 AM 44.6 °F 38.8 °F 39.0 °F 81% 30.16 in 5.0 mi East 11.5 mph - N/A   Haze
10:35 AM 44.1 °F 38.6 °F 38.8 °F 82% 30.17 in 5.0 mi East 10.4 mph - N/A   Haze
10:55 AM 44.2 °F 38.8 °F 38.8 °F 81% 30.16 in 7.0 mi East 10.4 mph - N/A   Overcast
11:15 AM 44.4 °F 40.5 °F 38.8 °F 81% 30.17 in 7.0 mi ESE 6.9 mph - N/A   Overcast
11:35 AM 44.6 °F 40.7 °F 38.5 °F 79% 30.17 in 7.0 mi ESE 6.9 mph - N/A   Overcast
11:55 AM 45.0 °F 40.1 °F 38.8 °F 79% 30.16 in 7.0 mi ESE 9.2 mph - N/A   Overcast
12:15 PM 45.5 °F 41.3 °F 39.0 °F 78% 30.15 in 10.0 mi SE 8.1 mph - N/A   Overcast
12:35 PM 45.7 °F 41.0 °F 38.5 °F 76% 30.14 in 10.0 mi ESE 9.2 mph - N/A   Overcast
12:55 PM 45.7 °F 41.5 °F 37.8 °F 74% 30.14 in 10.0 mi ESE 8.1 mph - N/A   Overcast
1:15 PM 45.9 °F 41.7 °F 38.1 °F 74% 30.14 in 7.0 mi ESE 8.1 mph - N/A   Overcast
1:35 PM 45.9 °F 41.7 °F 38.3 °F 75% 30.14 in 7.0 mi ESE 8.1 mph - N/A   Overcast
1:55 PM 45.9 °F 41.7 °F 38.1 °F 74% 30.12 in 7.0 mi ESE 8.1 mph - N/A   Overcast
2:15 PM 45.9 °F 42.3 °F 38.3 °F 75% 30.12 in 7.0 mi East 6.9 mph - N/A   Overcast
2:35 PM 46.0 °F 43.1 °F 38.5 °F 75% 30.12 in 7.0 mi ESE 5.8 mph - N/A   Overcast
2:55 PM 46.2 °F 42.7 °F 37.9 °F 73% 30.13 in 7.0 mi ESE 6.9 mph - N/A   Overcast
3:15 PM 46.4 °F 43.5 °F 38.3 °F 73% 30.13 in 7.0 mi SSE 5.8 mph - N/A   Mostly Cloudy
3:35 PM 45.9 °F 44.6 °F 37.9 °F 74% 30.13 in 7.0 mi SSE 3.5 mph - N/A   Overcast
3:55 PM 45.9 °F 43.6 °F 38.5 °F 75% 30.13 in 7.0 mi SSE 4.6 mph - N/A   Overcast
4:15 PM 45.7 °F 44.4 °F 38.5 °F 76% 30.13 in 7.0 mi South 3.5 mph - N/A   Overcast
4:35 PM 45.7 °F 44.4 °F 39.0 °F 78% 30.13 in 7.0 mi SSE 3.5 mph - N/A   Overcast
4:55 PM 45.5 °F - 38.8 °F 78% 30.14 in 7.0 mi Calm Calm - N/A   Overcast
5:15 PM 45.5 °F - 38.5 °F 76% 30.14 in 7.0 mi Calm Calm - N/A   Overcast
5:35 PM 45.5 °F - 38.7 °F 77% 30.14 in 7.0 mi Calm Calm - N/A   Overcast
5:55 PM 45.0 °F - 39.4 °F 81% 30.14 in 7.0 mi Calm Calm - N/A   Overcast
6:15 PM 44.8 °F 43.3 °F 39.2 °F 81% 30.13 in 7.0 mi SE 3.5 mph - N/A   Overcast
6:35 PM 44.6 °F 41.4 °F 38.8 °F 80% 30.12 in 7.0 mi SE 5.8 mph - N/A   Overcast
6:55 PM 44.6 °F 42.2 °F 38.5 °F 79% 30.12 in 7.0 mi SSE 4.6 mph - N/A   Overcast
7:15 PM 44.2 °F 42.7 °F 38.5 °F 80% 30.12 in 7.0 mi SSE 3.5 mph - N/A   Overcast
7:35 PM 44.2 °F 41.8 °F 38.5 °F 80% 30.11 in 7.0 mi SSE 4.6 mph - N/A   Overcast
7:55 PM 44.1 °F 40.8 °F 37.9 °F 79% 30.11 in 7.0 mi South 5.8 mph - N/A   Overcast
8:15 PM 44.1 °F 40.8 °F 38.3 °F 80% 30.11 in 7.0 mi South 5.8 mph - N/A   Overcast
8:35 PM 44.6 °F 41.4 °F 36.7 °F 74% 30.10 in 10.0 mi South 5.8 mph - N/A   Overcast
8:55 PM 44.2 °F 41.8 °F 37.2 °F 76% 30.11 in 10.0 mi South 4.6 mph - N/A   Overcast
9:15 PM 44.2 °F 42.7 °F 37.0 °F 76% 30.11 in 10.0 mi SSW 3.5 mph - N/A   Overcast
9:35 PM 44.1 °F 41.5 °F 37.4 °F 77% 30.11 in 10.0 mi SSW 4.6 mph - N/A   Overcast
9:55 PM 43.9 °F 40.5 °F 37.6 °F 78% 30.10 in 10.0 mi SW 5.8 mph - N/A   Overcast
10:15 PM 43.9 °F 40.5 °F 38.1 °F 80% 30.10 in 7.0 mi SSW 5.8 mph - N/A   Overcast
10:35 PM 43.7 °F 40.3 °F 38.3 °F 81% 30.09 in 7.0 mi SSW 5.8 mph - N/A   Overcast
10:55 PM 43.7 °F 41.1 °F 38.3 °F 81% 30.08 in 7.0 mi South 4.6 mph - N/A   Overcast
11:15 PM 43.7 °F 41.1 °F 38.3 °F 81% 30.07 in 7.0 mi South 4.6 mph - N/A   Overcast
11:35 PM 43.3 °F 39.2 °F 38.3 °F 82% 30.06 in 7.0 mi South 6.9 mph - N/A   Overcast
11:55 PM 43.3 °F 38.6 °F 38.5 °F 83% 30.05 in 7.0 mi South 8.1 mph - N/A   Overcast